Tracking 31030 objects as of 16-Jul-2025
HD Live streaming from Space Station
objects crossing your sky now

CZ-6A DEB

Track CZ-6A DEB now!
10-day predictions


NORAD ID: 54904
Int'l Code: 2022-151QR
Perigee: 671.9 km
Apogee: 799.2 km
Inclination: 99.1 °
Period: 99.4 minutes
Semi major axis: 7106 km
RCS: Unknown
Launch date: November 11, 2022
Source: People's Republic of China (PRC)
Launch site: Taiyaun Space Center, China (TSC)

Note: This is SATELLITE DEBRIS
Your satellite tracking list
Your tracking list is empty




NASA's NSSDC Master Catalog

Two Line Element Set (TLE):
1 54904U 22151QR  25196.77576599  .00003002  00000-0  76330-3 0  9998
2 54904  99.0638 279.1632 0089584 324.1685  35.3517 14.49161539139934
Source of the keplerian elements: AFSPC